World > North America > United States > New Jersey

Upper Greenwood Lake, New Jersey Regional Weather

Lat: 41.18N, Lon: 74.38W
Wx Zone: NJZ002
Warning NWS WEATHER ALERT - HIGH WIND WARNING (More Info. Click Here) Warning
Feedback

Upper Greenwood Lake, NJ Regional Weather

Expires:201910171700;;850412
ASUS41 KPHI 171612
RWRPHI

REGIONAL WEATHER ROUNDUP
NATIONAL WEATHER SERVICE MOUNT HOLLY NJ
1200 PM EDT THU OCT 17 2019

NOTE:  "FAIR" INDICATES FEW OR NO CLOUDS BELOW 12,000 FEET WITH NO
SIGNIFICANT WEATHER AND/OR OBSTRUCTIONS TO VISIBILITY.

 * = STATION DOES NOT REPORT PRECIPITATION (E.G. RAIN, SNOW, ETC.) 
        OR FOG.


NJZ001>014-171700-
NORTHERN NEW JERSEY
  
CITY           SKY/WX    TMP DP  RH WIND       PRES   REMARKS
SUSSEX         CLOUDY    53  41  63 VRB7G23   29.31R                  
ANDOVER*       NOT AVBL                                               
MORRISTOWN     CLOUDY    55  43  62 W24G36    29.35R                  
NEWARK         PTSUNNY   56  39  53 W24G38    29.33R                  
TETERBORO      CLOUDY    56  39  53 W26G39    29.31R                  
CALDWELL       CLOUDY    56  39  53 W18G30    29.34R                  
SOMERVILLE     CLOUDY    58  39  49 W10G31    29.36R                  

$$

SKY/WX - Weather  TMP - Temperature  DP - Dew Point  RH - Relative Humidity
WIND - Wind Direction/Speed PRES - Barometric Pressure VSB - Visibility
WCI - Wind Chill Index E13G22 Wind - East Wind 13 mph/Gusts of 22 mph